Weather in Hanoi

Vietnam     21˚01′45″N   105˚51′08″E
temp.,
°C
wind,
m/s
gust,
m/s
humid.,
%
clouds,
%
prec.,
mm/h
press.,
hPa
HPBL,
m
1 december, tue
tue101:00+18˚nne365394 0.0 1023354
04:00+18˚nne355497 0.0 1023255
07:00+17˚nne375596 0.0 1024390
10:00+20˚nne354952 0.0 1026632
13:00+20˚nne344876 0.0 1022758
16:00+21˚ne2350100 0.0 1020730
19:00+19˚ene2453100 0.0 1022235
22:00+19˚ne235598 0.0 1023177
2 december, wed
wed201:00+18˚ne235799 0.0 1021172
04:00+18˚ne2356100 0.0 1021162
07:00+18˚nne1257100 0.0 1022179
10:00+19˚nne2352100 0.0 1023426
13:00+21˚nne224898 0.0 1020779
16:00+22˚nne224854 0.0 1018976
19:00+21˚n125572 0.0 1021112
22:00+20˚ne2358100 0.0 1022212
3 december, thu
thu301:00+19˚nne4857100 0.0 1022435
04:00+18˚nne496190 0.0 1021496
07:00+17˚nne496286 0.0 1023600
10:00+17˚nne5858100 0.0 1024630
13:00+20˚ne455086 0.0 1021813
16:00+21˚ne2350100 0.0 10201181
19:00+18˚ne485993 0.0 1023330
22:00+18˚ne595795 0.0 1024586
4 december, fri
fri401:00+16˚ne595898 0.0 1024554
04:00+15˚nne5959100 0.0 1023659
07:00+15˚nne4858100 0.0 1025635
10:00+17˚nne465074 0.0 1025742
13:00+20˚ne334437 0.0 10211196
16:00+21˚ene224318 0.0 10191485
19:00+18˚ne235254 0.0 1021246
22:00+18˚e1257100 0.0 1023282
5 december, sat
sat501:00+16˚nne355765 0.0 1023172
04:00+15˚nne485765 0.0 1023351
07:00+14˚nne386061 0.0 1024401
10:00+18˚nne34462 0.0 1024694
13:00+21˚ne23411 0.0 10201171
16:00+21˚ene12400 0.0 10191286
19:00+19˚ssw01490 0.0 1020273
22:00+17˚sse34630 0.0 1022151